User: anonymous   Login
Location: Killam
(52.7910°N, 111.8608°W)
Time: 17:26:50
(UTC+00:00)
Language:

FENGYUN 1C DEB - Orbit

View from above orbital plane
View from above orbital plane
View from above satellite
View from above satellite

Ground track
Ground track

The orbit data is extracted from the following two-line orbital elements,

1 32129U 99025CRX 24144.23633149  .00008850  00000-0  43072-2 0  9997
2 32129  99.0536 240.6841 0083632 220.8777 199.6312 14.16582032862303
Epoch (UTC): 23 May 2024 05:40:19
Eccentricity: 0.0083632
inclination: 99.0536°
perigee height: 776 km
apogee height: 897 km
right ascension of ascending node: 240.6841°
argument of perigee: 220.8777°
revolutions per day: 14.16582032
mean anomaly at epoch: 199.6312°
orbit number at epoch: 86230

The dashed part of the orbit path shows where the satellite is in the earth's shadow,  

DLR